| time (UTC) | temp F | wind direction | speed knots | gust knots | rain 1hr in | rain 24hr in | rain mn in | humidity % | barometer mb |
| 20260906011604 | 80 | 48 | 12.2 | 20.9 | 0.00 | 0.07 | 0.07 | 77 | 1012.0 |
| 20260906010109 | 86 | 24 | 3.5 | 7.0 | 0.00 | 0.07 | 0.07 | 68 | 1011.7 |
| 20260906004605 | 87 | 355 | 1.7 | 2.6 | 0.00 | 0.07 | 0.07 | 67 | 1011.1 |
| 20260906003108 | 87 | 355 | 1.7 | 3.5 | 0.00 | 0.07 | 0.07 | 66 | 1011.0 |
| 20260906001617 | 87 | 0 | 0.0 | 1.7 | 0.00 | 0.07 | 0.07 | 65 | 1010.6 |
| 20260906000108 | 88 | 352 | 1.7 | 2.6 | 0.00 | 0.07 | 0.07 | 65 | 1010.8 |
| 20260905234602 | 88 | 352 | 0.0 | 1.7 | 0.00 | 0.07 | 0.07 | 64 | 1011.2 |
| 20260905233112 | 88 | 352 | 1.7 | 2.6 | 0.00 | 0.07 | 0.07 | 64 | 1011.2 |
| 20260905231600 | 88 | 0 | 0.0 | 1.7 | 0.00 | 0.07 | 0.07 | 64 | 1011.2 |
| 20260905230106 | 88 | 352 | 0.9 | 3.5 | 0.00 | 0.07 | 0.07 | 65 | 1011.3 |
| 20260905224609 | 88 | 355 | 2.6 | 3.5 | 0.00 | 0.07 | 0.07 | 65 | 1011.2 |
| 20260905223104 | 89 | 311 | 0.9 | 3.5 | 0.00 | 0.07 | 0.07 | 64 | 1011.0 |
| 20260905221603 | 90 | 308 | 2.6 | 4.3 | 0.00 | 0.07 | 0.07 | 63 | 1011.1 |
| 20260905220105 | 90 | 301 | 3.5 | 7.8 | 0.00 | 0.07 | 0.07 | 62 | 1011.1 |
| 20260905214600 | 90 | 316 | 5.2 | 8.7 | 0.00 | 0.07 | 0.07 | 61 | 1011.0 |
| 20260905213109 | 90 | 336 | 5.2 | 9.6 | 0.00 | 0.07 | 0.07 | 61 | 1010.9 |
| 20260905211603 | 90 | 281 | 2.6 | 9.6 | 0.00 | 0.07 | 0.07 | 62 | 1011.1 |
| 20260905210113 | 91 | 321 | 5.2 | 8.7 | 0.00 | 0.07 | 0.07 | 61 | 1011.3 |
| 20260905204604 | 91 | 280 | 6.1 | 10.4 | 0.00 | 0.07 | 0.07 | 60 | 1011.4 |
| 20260905203107 | 90 | 259 | 4.3 | 8.7 | 0.00 | 0.07 | 0.07 | 61 | 1011.7 |
| 20260905201609 | 90 | 261 | 7.8 | 12.2 | 0.00 | 0.07 | 0.07 | 61 | 1011.8 |
| 20260905200152 | 90 | 254 | 3.5 | 9.6 | 0.00 | 0.07 | 0.07 | 61 | 1011.8 |
| 20260905194616 | 90 | 265 | 1.7 | 7.8 | 0.00 | 0.07 | 0.07 | 59 | 1012.0 |
| 20260905193100 | 89 | 259 | 3.5 | 7.8 | 0.00 | 0.07 | 0.07 | 61 | 1012.1 |
| 20260905191602 | 89 | 254 | 3.5 | 8.7 | 0.00 | 0.07 | 0.07 | 60 | 1012.4 |
| 20260905184611 | 88 | 227 | 3.5 | 10.4 | 0.00 | 0.07 | 0.07 | 62 | 1012.8 |
| 20260905183112 | 87 | 243 | 3.5 | 10.4 | 0.00 | 0.07 | 0.07 | 65 | 1012.8 |
| 20260905181601 | 86 | 205 | 2.6 | 10.4 | 0.00 | 0.07 | 0.07 | 66 | 1012.9 |
| 20260905174607 | 85 | 248 | 4.3 | 9.6 | 0.00 | 0.07 | 0.07 | 67 | 1013.2 |
| 20260905173100 | 84 | 254 | 3.5 | 7.8 | 0.00 | 0.07 | 0.07 | 66 | 1013.5 |
| 20260905171607 | 84 | 208 | 5.2 | 8.7 | 0.00 | 0.07 | 0.07 | 66 | 1013.4 |
| 20260905170109 | 83 | 247 | 1.7 | 6.1 | 0.00 | 0.07 | 0.07 | 68 | 1013.7 |
| 20260905164605 | 82 | 251 | 3.5 | 8.7 | 0.00 | 0.07 | 0.07 | 68 | 1014.0 |
| 20260905163104 | 82 | 169 | 4.3 | 10.4 | 0.00 | 0.07 | 0.07 | 67 | 1014.2 |
| 20260905161609 | 81 | 142 | 2.6 | 7.0 | 0.00 | 0.07 | 0.07 | 70 | 1014.2 |
| 20260905160106 | 80 | 150 | 4.3 | 10.4 | 0.00 | 0.07 | 0.07 | 70 | 1014.2 |
| 20260905154600 | 79 | 157 | 6.1 | 8.7 | 0.00 | 0.07 | 0.07 | 73 | 1014.1 |
| 20260905153102 | 79 | 194 | 3.5 | 10.4 | 0.00 | 0.07 | 0.07 | 74 | 1014.0 |
| 20260905151602 | 77 | 128 | 4.3 | 9.6 | 0.00 | 0.07 | 0.07 | 76 | 1014.0 |
| 20260905144604 | 76 | 146 | 2.6 | 7.0 | 0.00 | 0.07 | 0.07 | 79 | 1014.0 |
| 20260905143105 | 75 | 134 | 1.7 | 7.8 | 0.00 | 0.07 | 0.07 | 78 | 1014.2 |
| 20260905141601 | 74 | 123 | 5.2 | 10.4 | 0.00 | 0.07 | 0.07 | 80 | 1014.2 |
| 20260905140105 | 73 | 94 | 5.2 | 10.4 | 0.00 | 0.07 | 0.07 | 82 | 1014.4 |
| 20260905134611 | 72 | 96 | 3.5 | 11.3 | 0.00 | 0.07 | 0.07 | 85 | 1014.7 |
| 20260905133100 | 71 | 99 | 4.3 | 8.7 | 0.00 | 0.07 | 0.07 | 88 | 1015.1 |
| 20260905131605 | 70 | 111 | 3.5 | 10.4 | 0.00 | 0.07 | 0.07 | 89 | 1015.4 |
| 20260905124605 | 69 | 107 | 7.8 | 12.2 | 0.04 | 0.07 | 0.07 | 90 | 1015.7 |
| 20260905123108 | 70 | 113 | 8.7 | 12.2 | 0.05 | 0.07 | 0.07 | 90 | 1015.9 |
| 20260905121603 | 70 | 111 | 0.9 | 7.8 | 0.05 | 0.07 | 0.07 | 89 | 1016.5 |
| 20260905120105 | 70 | 155 | 7.8 | 11.3 | 0.05 | 0.07 | 0.07 | 87 | 1016.5 |
| 20260905114613 | 72 | 121 | 5.2 | 11.3 | 0.01 | 0.03 | 0.03 | 85 | 1016.2 |
| 20260905113108 | 73 | 53 | 8.7 | 26.1 | 0.00 | 0.02 | 0.02 | 83 | 1015.9 |
| 20260905111613 | 74 | 36 | 13.0 | 33.9 | 0.00 | 0.02 | 0.02 | 83 | 1015.0 |
| 20260905110104 | 75 | 35 | 11.3 | 20.0 | 0.00 | 0.02 | 0.02 | 81 | 1014.3 |
| 20260905104603 | 76 | 242 | 2.6 | 5.2 | 0.01 | 0.02 | 0.02 | 76 | 1012.8 |
| 20260905103102 | 77 | 298 | 1.7 | 6.1 | 0.02 | 0.02 | 0.02 | 76 | 1012.2 |
| 20260905101602 | 76 | 228 | 0.0 | 2.6 | 0.02 | 0.02 | 0.02 | 78 | 1012.6 |
| 20260905100107 | 76 | 233 | 2.6 | 13.9 | 0.02 | 0.02 | 0.02 | 80 | 1013.0 |
| 20260905094612 | 74 | 212 | 17.4 | 34.8 | 0.01 | 0.01 | 0.01 | 87 | 1013.3 |
| 20260905093101 | 74 | 244 | 8.7 | 12.2 | 0.00 | 0.00 | 0.00 | 88 | 1014.1 |
| 20260905091609 | 77 | 273 | 2.6 | 3.5 | 0.00 | 0.00 | 0.00 | 85 | 1012.9 |
| 20260905090103 | 76 | 272 | 0.9 | 2.6 | 0.00 | 0.00 | 0.00 | 86 | 1012.4 |
| 20260905084607 | 76 | 271 | 1.7 | 3.5 | 0.00 | 0.00 | 0.00 | 88 | 1012.7 |
| 20260905083102 | 75 | 271 | 1.7 | 3.5 | 0.00 | 0.00 | 0.00 | 90 | 1012.7 |
| 20260905081619 | 75 | 206 | 1.7 | 2.6 | 0.00 | 0.00 | 0.00 | 89 | 1012.5 |
| 20260905080107 | 75 | 205 | 1.7 | 3.5 | 0.00 | 0.00 | 0.00 | 89 | 1012.4 |
| 20260905074604 | 75 | 205 | 1.7 | 2.6 | 0.00 | 0.00 | 0.00 | 90 | 1012.3 |
| 20260905073102 | 75 | 205 | 1.7 | 3.5 | 0.00 | 0.00 | 0.00 | 90 | 1012.3 |
| 20260905071606 | 75 | 163 | 0.9 | 3.5 | 0.00 | 0.00 | 0.00 | 90 | 1012.5 |
| 20260905070105 | 76 | 163 | 0.9 | 3.5 | 0.00 | 0.00 | 0.00 | 88 | 1012.7 |
| 20260905064603 | 77 | 163 | 0.0 | 0.0 | 0.00 | 0.00 | 0.00 | 86 | 1012.9 |
| 20260905063118 | 77 | 163 | 0.0 | 1.7 | 0.00 | 0.00 | 0.00 | 85 | 1013.1 |
| 20260905061614 | 77 | 163 | 0.0 | 3.5 | 0.00 | 0.00 | 0.00 | 85 | 1013.2 |
| 20260905060105 | 77 | 163 | 0.9 | 3.5 | 0.00 | 0.00 | 0.00 | 86 | 1013.4 |
| 20260905054601 | 77 | 163 | 0.9 | 3.5 | 0.00 | 0.00 | 0.00 | 85 | 1013.6 |
| 20260905053100 | 78 | 163 | 0.9 | 3.5 | 0.00 | 0.00 | 0.00 | 83 | 1013.8 |
| 20260905051603 | 79 | 163 | 0.9 | 1.7 | 0.00 | 0.00 | 0.00 | 81 | 1014.0 |
| 20260905050106 | 79 | 0 | 0.0 | 1.7 | 0.00 | 0.00 | 0.00 | 81 | 1013.9 |
| 20260905044603 | 79 | 163 | 0.9 | 1.7 | 0.00 | 0.00 | 0.00 | 81 | 1013.9 |
| 20260905043119 | 79 | 163 | 2.6 | 4.3 | 0.00 | 0.00 | 0.00 | 80 | 1014.0 |
| 20260905041602 | 79 | 163 | 1.7 | 3.5 | 0.00 | 0.00 | 0.00 | 80 | 1014.0 |
| 20260905040120 | 79 | 163 | 1.7 | 3.5 | 0.00 | 0.00 | 0.00 | 80 | 1014.0 |
| 20260905034602 | 79 | 0 | 0.0 | 0.9 | 0.00 | 0.00 | 0.00 | 81 | 1014.2 |
| 20260905033104 | 79 | 0 | 0.0 | 1.7 | 0.00 | 0.00 | 0.00 | 81 | 1014.1 |
| 20260905031610 | 79 | 163 | 0.9 | 3.5 | 0.00 | 0.00 | 0.00 | 81 | 1014.0 |
| 20260905030106 | 80 | 163 | 3.5 | 4.3 | 0.00 | 0.00 | 0.00 | 80 | 1013.9 |
| 20260905024605 | 80 | 146 | 1.7 | 2.6 | 0.00 | 0.00 | 0.00 | 79 | 1014.0 |
| 20260905023107 | 80 | 0 | 0.0 | 2.6 | 0.00 | 0.00 | 0.00 | 78 | 1014.0 |
| 20260905021605 | 80 | 67 | 1.7 | 3.5 | 0.00 | 0.00 | 0.00 | 78 | 1014.0 |
| 20260905014604 | 80 | 66 | 0.0 | 3.5 | 0.00 | 0.00 | 0.00 | 78 | 1013.9 |
| 20260905013105 | 80 | 40 | 4.3 | 8.7 | 0.00 | 0.00 | 0.00 | 78 | 1013.8 |